Tracking 31030 objects as of 17-Jul-2025
HD Live streaming from Space Station
objects crossing your sky now

INTELSAT 801

Track INTELSAT 801 now!
INTELSAT 801 is classified as:


NORAD ID: 24742
Int'l Code: 1997-009A
Perigee: 36,189.2 km
Apogee: 36,271.7 km
Inclination: 11.7 °
Period: 1,458.5 minutes
Semi major axis: 42601 km
RCS: 1.061 m2 (large)
Launch date: March 1, 1997
Source: International Telecommunications Satellite Organization (ITSO)
Launch site: FRENCH GUIANA (FRGUI)

64 C-band, 16 Ku-band; broadcasting, business services, direct-to-home TV broadcasting, telecommunications, VSAT networks; Atlantic Ocean region.
Your satellite tracking list
Your tracking list is empty




NASA's NSSDC Master Catalog

Two Line Element Set (TLE):
1 24742U 97009A   25197.14061390  .00000033  00000-0  00000-0 0  9998
2 24742  11.6682  35.7420 0009684  13.2257 350.9144  0.98733785103340
Source of the keplerian elements: AFSPC